Regional Weather Roundup
Issued by NWS Sterling, VA

Home | Current Version | Previous Version | Text Only | Print | Product List | Glossary On
Versions: 1 2 3 4 5 6 7 8 9 10 11 12 13 14 15 16 17 18 19 20 21 22 23 24 25 26 27 28
000
ASUS41 KLWX 262011
RWRLWX

REGIONAL WEATHER ROUNDUP
NATIONAL WEATHER SERVICE BALTIMORE MD/WASHINGTON DC
400 PM EDT WED APR 26 2017

Note: "FAIR" indicates few or no clouds below 12,000 feet
with no significant weather and/or obstructions to visibility.
 TC=TEMPERATURE CELSIUS

 * =Non NWS site. Station does not report precipitation (e.g. rain,
    snow, etc.), thunder, or fog.

DCZ001-MDZ009-015-VAZ040>042-051-053>054-262100-
WASHINGTON METRO

CITY           SKY/WX    TMP DP  RH WIND       PRES   REMARKS
WASHINGTON NAT CLOUDY    69  58  67 NW6       29.78S
DULLES         PTSUNNY   71  58  63 VRB5      29.77F
ANDREWS AFB    CLOUDY    67  56  70 NW6       29.78R
FT BELVOIR     CLOUDY    71  57  62 N3        29.77F
QUANTICO       PTSUNNY   69  62  78 E7        29.78F
COLLEGE PARK*  CLOUDY    67  56  69 NW3       29.78S
LEESBURG*      PTSUNNY   72  63  73 NW7       29.78F
MANASSAS*        N/A     71  60  68 VRB5      29.77F

$$

MDZ006>007-011-014-262100-
BALTIMORE METRO

CITY           SKY/WX    TMP DP  RH WIND       PRES   REMARKS
BWI AIRPORT    CLOUDY    65  58  78 CALM      29.78R
MD SCIENCE CTR   N/A     68  56  65 MISG      29.78S
MARTIN STATE   CLOUDY    64  61  88 SE6       29.79R
ANNAPOLIS      CLOUDY    63  59  87 S3        29.78R
FORT MEADE*    CLOUDY    63  57  82 CALM      29.81R

$$

MDZ012-015-019>023-262100-
MARYLAND EASTERN SHORE

CITY           SKY/WX    TMP DP  RH WIND       PRES   REMARKS
OCEAN CITY     CLOUDY    57  55  93 E3        29.78R
SALISBURY      CLOUDY    64  60  87 W3        29.77S
BAY BRIDGE AP* CLOUDY    63  57  82 W3        29.79R HAZE
CAMBRIDGE*     CLOUDY    64  57  77 W5        29.79R
EASTON*        CLOUDY    64  57  77 NW5       29.82R

$$

MDZ017>025-262100-
SOUTHERN MARYLAND

CITY           SKY/WX    TMP DP  RH WIND       PRES   REMARKS
PATUXENT RIVER PTSUNNY   62  60  93 NE3       29.79R
ST INIGOES     CLOUDY    68  58  70 NW6       29.77F
LEONARDTOWN*   CLOUDY    64  55  72 CALM      29.80S

$$

MDZ003>005-262100-
NORTH CENTRAL MARYLAND

CITY           SKY/WX    TMP DP  RH WIND       PRES   REMARKS
FREDERICK*     CLOUDY    70  63  78 CALM      29.80F
HAGERSTOWN APT PTSUNNY   70  58  65 N6        29.77F
WESTMINSTER*   CLOUDY    66  59  77 W3        29.79S

$$

MDZ501>502-262100-
WESTERN MARYLAND

CITY           SKY/WX    TMP DP  RH WIND       PRES   REMARKS
OAKLAND*         N/A     70  52  52 S6        29.79F
CUMBERLAND*    SUNNY     77  59  53 S8        29.77F

$$

VAZ025>031-262100-
SHENANDOAH VALLEY

CITY           SKY/WX    TMP DP  RH WIND       PRES   REMARKS
WINCHESTER*    MOSUNNY   72  55  56 N3        29.76F
FRONT ROYAL*   MOSUNNY   73  59  60 CALM      29.75F
LURAY*         PTSUNNY   77  59  53 CALM      29.75F
NEW MARKET*    MOSUNNY   76  56  49 CALM      29.74F
STAUNTON*      SUNNY     75  60  58 SE3       29.78F
WAYNESBORO*    SUNNY     77  60  54 E7        29.77F

$$

WVZ021-048>050-054>055-262100-
EASTERN WEST VIRGINIA PANHANDLE

CITY           SKY/WX    TMP DP  RH WIND       PRES   REMARKS
MARTINSBURG    MOSUNNY   72  58  61 VRB5      29.75F
PETERSBURG*    SUNNY     80  61  51 NE3       29.72F

$$

VAZ036>039-050-262100-
CENTRAL FOOTHILLS

CITY           SKY/WX    TMP DP  RH WIND       PRES   REMARKS
CHARLOTTESVILL PTSUNNY   80  59  48 SE7       29.74F
CULPEPER*      MOSUNNY   75  61  61 CALM      29.77F
ORANGE*        MOSUNNY   73  59  60 CALM      29.76F
GORDONSVILLE*  MOSUNNY   76  60  58 NE6       29.75F
WARRENTON*     PTSUNNY   75  55  49 S5        29.76F

$$

VAZ055>057-262100-
NORTH AND CENTRAL PIEDMONT

CITY           SKY/WX    TMP DP  RH WIND       PRES   REMARKS
FREDERICKSBRG* MOSUNNY   75  60  60 NW5       29.76F
STAFFORD*      PTSUNNY   70  61  73 NE3       29.81R

$$

NCZ024-NYZ072-PAZ021-071-VAZ022-071-262100-
OTHER REGIONAL OBSERVATIONS

CITY           SKY/WX    TMP DP  RH WIND       PRES   REMARKS
NEW YORK CITY  CLOUDY    58  57  97 NE7       29.79S FOG
PITTSBURGH     PTSUNNY   77  56  48 VRB6      29.72F
ROANOKE        MOSUNNY   80  58  46 S9        29.77F
RICHMOND       MOSUNNY   75  59  57 VRB5      29.77F
RALEIGH        MOSUNNY   80  63  55 SW14      29.79F

$$

ANZ530>537-262100-
MARINE OBSERVATIONS

STATION/POSITION TIME  TEMP    WIND        PRES
                       AIR SEA DIR/SP/G
                 (UTC) (F)     (DEG/KT/KT) (MB)
THOMAS PT LIGHT  2000   61 55   CALM  /  1   N/A
BALT KEY BRIDGE  1948   61     120/  6/  7 1008.3R
COVE POINT       1942   59     360/  2/  4 1009.2R
LEWISETTA        1942   66 63  360/  6/  8 1008.1F
SOLOMONS ISLAND  1942   60 60  110/  6/  6   N/A
PINEY POINT      1948          320/  9/ 10   N/A

$$





USA.gov is the U.S. government's official web portal to all federal, state and local government web resources and services.